Find GPS II-1

NORAD ID: 19802 Int'l Des: 1989-013 Owner: AFSD Country: US Constellation: GPS operational
MEOCIRCULAR

リアルタイム位置

3D地球を読み込み中...

GPS II-1について

説明を読み込み中...

次回通過

Passes for default location (London). Set your location on the main map for personalized predictions.

高度履歴

Loading altitude history...

軌道要素

1 19802U 89013A 26121.46099575 -.00000001 00000-0 00000+0 0 9999
2 19802 54.9984 96.2040 0043845 249.9249 287.6354 1.85325612257401
Epoch: May 1, 2026 • Age: 9 hours

現在のステータス

高度 21746.0 km
速度 3.76 km/s
衛星直下点 46.41°N, 14.12°W
打ち上げ日 Feb 14, 1989
運用期間 37.2 years
タイプ navigation

技術仕様

分類 Payload
質量 776.00 kg
乾燥質量 776.00 kg
総質量 1667.00 kg
長さ 2.40 m
直径 1.80 m
スパン 5.30 m
形状 Box + 2 Pan
製造者 RWISB
バスタイプ GPS II
フェーズステータス In Orbit
所有者/国 AFSD/US

Most Searched